Location: Menands
(42.6920°N, 73.7246°W)
Time: 17:16:33
(UTC+00:00)

SAR-Lupe-4 - Pass Details

Date: 18 February 2026
Orbit: 480 x 483 km, 98.1° (Epoch: 10 January)

Event Time Altitude Azimuth Distance (km) Brightness Sun altitude
Rises 22:59:09 0° 160° (SSE) 2,523 7.1 -5.9°
Reaches altitude 10° 23:01:12 10° 157° (SSE) 1,649 6.1 -6.3°
Maximum altitude 23:04:43 67° 75° (ENE) 523 3.5 -6.9°
Drops below altitude 10° 23:08:16 10° 352° (N) 1,664 6.3 -7.6°
Sets 23:10:21 0° 350° (N) 2,549 7.3 -8.0°
